Regional Weather Roundup
Issued by NWS Cleveland, OH

Home | Current Version | Previous Version | Graphics & Text | Print | Product List | Glossary On
Versions: 1 2 3 4 5 6 7 8 9 10 11 12 13 14 15 16 17 18 19 20 21 22 23 24 25 26 27 28 29 30 31 32 33 34 35 36 37 38 39 40 41 42 43 44 45 46 47 48 49 50
000
ASUS41 KCLE 270210
RWRCLE
OHIO REGIONAL WEATHER ROUNDUP
NATIONAL WEATHER SERVICE CLEVELAND, OH
1000 PM EDT SUN APR 26 2015

NOTE: "FAIR" INDICATES FEW OR NO CLOUDS BELOW 12,000 FEET WITH NO
SIGNIFICANT WEATHER AND/OR OBSTRUCTIONS TO VISIBILITY.

OHZ001>008-015>018-024>027-034-035-043-044-270300-
   NORTHWEST OHIO

CITY           SKY/WX    TMP DP  RH WIND       PRES   REMARKS
DEFIANCE       PTCLDY    51  31  46 CALM      29.91R
FINDLAY        CLOUDY    51  33  50 E6        29.90R
TOLEDO EXPRESS PTCLDY    47  31  53 E5        29.90R
TOLEDO EXEC    CLEAR     47  33  58 E5        29.92R
LIMA           CLOUDY    49  35  58 E6        29.90R
$$

OHZ009>014-019>023-028>033-038-089-270300-
   NORTHEAST OHIO

CITY           SKY/WX    TMP DP  RH WIND       PRES   REMARKS
CLE-HOPKINS    PTCLDY    43  31  62 N7        29.92S
CLE-LAKEFRONT  CLEAR     44  35  70 N7        29.89S
CUY CO. ARPT   NOT AVBL
LORAIN-ELYRIA  CLEAR     43  31  62 NE5       29.90S
ASHTABULA      CLOUDY    44  31  60 NW6       29.87S
AKRON-CANTON   PTCLDY    44  29  55 N9        29.87R
WOOSTER        CLEAR     42  31  64 N5        29.89R
MANSFIELD      PTCLDY    44  29  55 N6        29.89R
YOUNGSTOWN     MOCLDY    45  31  58 N14       29.85S
$$

OHZ042-051>053-060>062-070>072-077>081-270300-
  SOUTHWEST OHIO

CITY           SKY/WX    TMP DP  RH WIND       PRES   REMARKS
CINC-COVINGTON MOCLDY    50  35  56 N7        29.90R
CINC-LUNKEN    PTCLDY    50  35  56 N6        29.91R
HAMILTON       CLEAR     44  37  76 N3        29.91R
DAYTON         PTCLDY    48  32  53 E3        29.90R
WRIGHT-PAT AFB CLEAR     48  33  56 W1        29.90R
DAYTON GENERAL CLEAR     49  32  52 CALM      29.89R
WILMINGTON     CLEAR     43  33  68 NE8       29.90R
$$

OHZ036-037-039>041-045>050-054>059-063>069-073>076-082>088-270300-
  CENTRAL AND SOUTHEAST OHIO

CITY           SKY/WX    TMP DP  RH WIND       PRES   REMARKS
COLUMBUS       CLEAR     47  31  53 N5        29.89R
OSU AIRPORT    CLEAR     46  30  53 N6        29.89R
BOLTON FIELD   CLEAR     46  31  56 N3        29.90R
RICKENBACK AFB CLEAR     48  30  50 N5        29.88R
NEWARK         CLEAR     49  29  46 N6        29.88R
MARION         CLEAR     43  31  62 NE7       29.90R
LANCASTER      CLEAR     46  33  60 N3        29.89R
ZANESVILLE     CLEAR     47  28  47 N6        29.87R
NEW PHILLY     CLEAR     49  30  48 N9        29.87R
$$


USA.gov is the U.S. government's official web portal to all federal, state and local government web resources and services.